Location: Gallinara
(44.0333°N, 8.2333°E)
Time: 16:55:45
(UTC+00:00)

Cosmos 2100 Rocket - Pass Details

Date: 25 September 2020
Orbit: 956 x 1000 km, 82.9° (Epoch: 28 October)

Event Time Altitude Azimuth Distance (km) Brightness Sun altitude
Rises 03:05:51 0° 354° (N) 3,735 7.3 -24.0°
Reaches altitude 10° 03:08:25 10° 357° (N) 2,781 6.6 -23.5°
Maximum altitude 03:14:47 66° 80° (E) 1,083 4.4 -22.5°
Drops below altitude 10° 03:21:04 10° 162° (SSE) 2,750 6.3 -21.4°
Sets 03:23:36 0° 165° (SSE) 3,690 7.0 -21.0°
